User: anonymous   Login
Location: Killarney Provincial Park Observatory
(46.0124°N, 81.4000°W)
Time: 13:11:19
(UTC-04:00)
Language:

Iridium 22 - Orbit

View from above orbital plane
View from above orbital plane
View from above satellite
View from above satellite

Ground track
Ground track

The orbit data is extracted from the following two-line orbital elements,

1 24907U 97043E   14296.46148417  .00000295  00000-0  98419-4 0   253
2 24907 086.3936 300.5078 0002235 105.6123 043.3556 14.34218464899124
Epoch (UTC): 23 October 2014 11:04:32
Eccentricity: 0.0002235
inclination: 86.3936°
perigee height: 776 km
apogee height: 779 km
right ascension of ascending node: 300.5078°
argument of perigee: 105.6123°
revolutions per day: 14.34218464
mean anomaly at epoch: 43.3556°
orbit number at epoch: 89912

The dashed part of the orbit path shows where the satellite is in the earth's shadow,  

DLR